Home > Weather > Québec > Past weeks

Flag for Canada Past Weather in Québec, Quebec, Canada — Yesterday and Last 2 Weeks

Now
70 °F

Passing clouds.


Feels Like: 70 °F
Forecast: 59 / 72 °F
Wind: 6 mph from East

Location: Quebec Weather Station

Current Time: Aug 27, 2016 at 8:43:26 PM

Latest Report: Aug 27, 2016 at 8:00 PM


Visibility: 15 mi

Pressure: 30.24 "Hg

Humidity: 53%

Dew Point: 52 °F

Location of QuébecLocation

Past Weather in Québec — Graph

°F

Québec Temperature Yesterday

Maximum temperature yesterday: 81 °F (at 1:00 PM)
Minimum temperature yesterday: 61 °F (at 11:00 PM)
Average temperature yesterday: 73 °F

High & Low Weather Summary for the Past Weeks

 TemperatureHumidityPressure
High82 °F (Aug 20, 4:00 PM)100% (Aug 14, 7:00 AM)30.24 "Hg (Aug 14, 7:00 AM)
Low50 °F (Aug 23, 6:00 AM)42% (Aug 18, 5:00 PM)29.70 "Hg (Aug 21, 6:00 PM)
Average68 °F78%29.95 "Hg
* Reported Aug 12 7:00 PM — Aug 27 7:00 PM, Québec, Weather by CustomWeather, © 2016

Note: Actual official high and low records may vary slightly from our data, if they occured in-between our weather recording intervals... More about our weather records

Advertising

Québec Weather History for the Previous 24 Hours

Scroll right to see more
 ConditionsComfort  
Time TempWeatherWind HumidityBarometerVisibility
7:00 PM
Sat, Aug 27
73 °FPassing clouds.7 mph47%30.23 "Hg30 mi
6:00 PM75 °FScattered clouds.8 mph44%30.22 "Hg30 mi
5:00 PM75 °FScattered clouds.3 mph44%30.22 "Hg30 mi
4:00 PM75 °FScattered clouds.No wind47%30.22 "Hg30 mi
3:00 PM75 °FScattered clouds.7 mph44%30.22 "Hg30 mi
2:00 PM73 °FPartly sunny.6 mph44%30.22 "Hg30 mi
1:00 PM73 °FPassing clouds.10 mph44%30.23 "Hg30 mi
12:00 PM73 °FScattered clouds.9 mph47%30.23 "Hg30 mi
11:00 AM70 °FPassing clouds.5 mph57%30.24 "Hg30 mi
10:00 AM68 °FPassing clouds.5 mph60%30.24 "Hg30 mi
9:00 AM66 °FPassing clouds.8 mph64%30.22 "Hg30 mi
8:00 AM63 °FPassing clouds.10 mph73%30.20 "Hg30 mi
7:00 AM61 °FPassing clouds.8 mph77%30.19 "Hg30 mi
6:00 AM57 °FPassing clouds.9 mph88%30.16 "Hg30 mi
5:00 AM57 °FClear.7 mph88%30.14 "Hg30 mi
4:00 AM59 °FClear.5 mph82%30.12 "Hg15 mi
3:00 AM61 °FClear.2 mph77%30.10 "Hg15 mi
2:00 AM61 °FClear.6 mph83%30.09 "Hg15 mi
1:00 AM61 °FClear.2 mph83%30.07 "Hg15 mi
12:00 AM63 °FClear.5 mph77%30.05 "Hg15 mi
11:00 PM
Fri, Aug 26
61 °FClear.5 mph83%30.04 "Hg15 mi
10:00 PM63 °FClear.8 mph83%30.02 "Hg15 mi
9:00 PM66 °FPassing clouds.7 mph73%30.00 "Hg30 mi
8:00 PM70 °FPassing clouds.7 mph64%29.97 "Hg15 mi
Weather by CustomWeather, © 2016

See weather overviewHow to use our weather pages